Hourly Data Report for October 15, 2016

All times are specified in Local Standard Time (LST). Add 1 hour to adjust for Daylight Saving Time where and when it is observed.

KITCHENER/WATERLOO
ONTARIO

43°27'39.000" N
80°22'43.000" W
321.60 m
6144239
71368
YKF

Download Data

Hourly Data (October 2016)
Hourly Data Report for October 15, 2016
Temp Definition
°C
Dew Point Temp Definition
°C
Rel Hum Definition
%
Wind Dir Definition
10's deg

Wind Spd Definition
km/h
Visibility Definition
km
Stn Press Definition
kPa
Hmdx Definition


Wind Chill Definition


Weather Definition


TIME
00:00 Legend Double Dagger 5.7 3.4 85 9 5 16.1 98.58     LegendNANA
01:00 Legend Double Dagger 3.1 2.2 94 7 4 16.1 98.58     LegendNANA
02:00 Legend Double Dagger 1.1 0.3 94 7 4 16.1 98.53     LegendNANA
03:00 Legend Double Dagger 2.6 1.9 95   0 16.1 98.49     LegendNANA
04:00 Legend Double Dagger 0.9 0.5 97   0 11.3 98.49     LegendNANA
05:00 Legend Double Dagger 1.0 0.6 97   0 6.4 98.48     Fog
06:00 Legend Double Dagger 0.3 0.0 98   0 1.2 98.50     Fog
07:00 Legend Double Dagger 0.2 -0.1 98 3 4 2.4 98.51     Fog
08:00 Legend Double Dagger 4.2 3.8 97 LegendMM 4 9.7 98.54     Fog
09:00 Legend Double Dagger 10.7 8.4 86 18 5 16.1 98.51     LegendNANA
10:00 Legend Double Dagger 13.9 9.8 76 17 18 16.1 98.47     LegendNANA
11:00 Legend Double Dagger 15.7 9.6 67 20 17 16.1 98.42     LegendNANA
12:00 Legend Double Dagger 17.8 10.1 60 18 15 16.1 98.35     LegendNANA
13:00 Legend Double Dagger 19.3 10.4 56 18 21 16.1 98.23     LegendNANA
14:00 Legend Double Dagger 21.3 11.4 53 19 17 16.1 98.14     LegendNANA
15:00 Legend Double Dagger 20.9 12.8 59 17 22 16.1 98.07     LegendNANA
16:00 Legend Double Dagger 20.2 13.6 65 19 22 16.1 98.05     LegendNANA
17:00 Legend Double Dagger 18.5 13.4 72 19 17 16.1 98.02     LegendNANA
18:00 Legend Double Dagger 17.3 13.3 77 19 9 16.1 98.00     LegendNANA
19:00 Legend Double Dagger 17.1 13.4 79 18 11 16.1 97.99     LegendNANA
20:00 Legend Double Dagger 16.7 13.1 79 18 9 16.1 97.95     LegendNANA
21:00 Legend Double Dagger 16.5 13.6 83 19 15 16.1 97.89     LegendNANA
22:00 Legend Double Dagger 16.4 13.9 85 20 18 16.1 97.83     LegendNANA
23:00 Legend Double Dagger 17.1 14.2 83 20 13 16.1 97.85     LegendNANA

Notes on Data Quality.

Legend

  • E = Estimated
  • M = Missing
  • NA = Not Available
  • ‡ = Partner data that is not subject to review by the National Climate Archives
Date modified: